Louisville, KY

9:26 AM EDT on July 21, 2017 (GMT -0400)
Louisville International-Standiford

Weather History for KSDF - February, 2014

Change the Weather History Date:

Tuesday, February 18, 2014

  Actual Average Record
Temperature  
Mean Temperature 47 °F 40 °F  
Max Temperature 58 °F 49 °F 73 °F (1948)
Min Temperature 35 °F 31 °F -7 °F (1936)
Degree Days  
Heating Degree Days 18 25  
Month to date heating degree days 633 493  
Since 1 July heating degree days 3393 3002  
Cooling Degree Days 0 0  
Month to date cooling degree days 0 0  
Year to date cooling degree days 0 0  
Moisture  
Dew Point 30 °F    
Average Humidity 56    
Maximum Humidity 82    
Minimum Humidity 30    
Precipitation  
Precipitation 0.00 in 0.11 in 3.53 in (2000)
Month to date precipitation 3.40 2.03  
Year to date precipitation 5.81 5.27  
Snow  
Snow 0.00 in 0.10 in 4.70 in (1979)
Month to date snowfall 7.1 3.2  
Since 1 July snowfall 21.2 9.7  
Snow Depth 0.00 in    
Sea Level Pressure  
Sea Level Pressure 30.02 in    
Wind  
Wind Speed 10 mph (South)    
Max Wind Speed 18 mph    
Max Gust Speed 24 mph    
Visibility 10 miles    
Events      
T = Trace of Precipitation, MM = Missing Value Source: NWS Daily Summary

Daily Weather History Graph

Daily Weather History Graph

Search for Another Location

Airport or City:

Trip Planner

Search our weather history database for the weather conditions in past years. The results will help you decide how hot, cold, wet, or windy it might be!

Date:

Astronomy

Feb. 18, 2014 Rise Set
Actual Time 7:29 AM EST 6:24 PM EST
Civil Twilight 7:02 AM EST 6:51 PM EST
Nautical Twilight 6:31 AM EST 7:22 PM EST
Astronomical Twilight 6:01 AM EST 7:53 PM EST
Moon 10:13 PM EST (2/18) 9:05 AM EST (2/18)
Length of Visible Light 11h 49m
Length of Day
10h 55m
Waning Gibbous, 87% of the Moon is Illuminated
Feb 18
Waning Gibbous
Feb 22
Last Quarter
Mar 1
New
Mar 8
First Quarter
Mar 16
Full

Hourly Weather History & Observations

Time (EST) Temp. Windchill Dew Point Humidity Pressure Visibility Wind Dir Wind Speed Gust Speed Precip Events Conditions
12:56 AM 37.9 °F 30.5 °F 32.0 °F 79% 30.05 in 9.0 mi SW 11.5 mph - N/A   Clear
1:56 AM 39.9 °F 34.5 °F 30.9 °F 70% 30.06 in 10.0 mi SW 8.1 mph - N/A   Clear
2:56 AM 39.0 °F 33.4 °F 30.0 °F 70% 30.07 in 10.0 mi SSW 8.1 mph - N/A   Clear
3:56 AM 39.0 °F 34.0 °F 30.0 °F 70% 30.08 in 10.0 mi SW 6.9 mph - N/A   Partly Cloudy
4:56 AM 39.0 °F 35.7 °F 28.9 °F 67% 30.10 in 10.0 mi SW 4.6 mph - N/A   Scattered Clouds
5:56 AM 37.9 °F 35.5 °F 28.0 °F 68% 30.12 in 10.0 mi SW 3.5 mph - N/A   Mostly Cloudy
6:56 AM 39.0 °F 36.8 °F 26.1 °F 60% 30.13 in 10.0 mi SSW 3.5 mph - N/A   Partly Cloudy
7:56 AM 37.9 °F 35.5 °F 26.1 °F 62% 30.14 in 10.0 mi South 3.5 mph - N/A   Partly Cloudy
8:56 AM 41.0 °F 36.4 °F 28.0 °F 60% 30.15 in 10.0 mi SSW 6.9 mph - N/A   Partly Cloudy
9:56 AM 46.0 °F 43.9 °F 28.0 °F 50% 30.14 in 10.0 mi South 4.6 mph - N/A   Partly Cloudy
10:56 AM 50.0 °F - 28.9 °F 44% 30.14 in 10.0 mi South 9.2 mph - N/A   Partly Cloudy
11:56 AM 53.1 °F - 30.9 °F 43% 30.11 in 10.0 mi SSE 8.1 mph - N/A   Partly Cloudy
12:56 PM 55.9 °F - 28.9 °F 36% 30.07 in 10.0 mi South 15.0 mph - N/A   Mostly Cloudy
1:56 PM 57.0 °F - 27.0 °F 32% 30.03 in 10.0 mi South 13.8 mph - N/A   Mostly Cloudy
2:56 PM 57.9 °F - 30.0 °F 35% 30.01 in 10.0 mi South 15.0 mph - N/A   Overcast
3:56 PM 57.0 °F - 30.9 °F 37% 29.97 in 10.0 mi South 15.0 mph - N/A   Overcast
4:56 PM 55.9 °F - 28.9 °F 36% 29.93 in 10.0 mi South 16.1 mph 20.7 mph N/A   Overcast
5:56 PM 55.0 °F - 27.0 °F 34% 29.91 in 10.0 mi South 11.5 mph - N/A   Mostly Cloudy
6:56 PM 53.1 °F - 28.0 °F 38% 29.90 in 10.0 mi South 12.7 mph - N/A   Mostly Cloudy
7:56 PM 50.0 °F - 30.0 °F 46% 29.88 in 10.0 mi SSE 8.1 mph - N/A   Scattered Clouds
8:56 PM 50.0 °F - 28.0 °F 43% 29.88 in 10.0 mi South 8.1 mph - N/A   Scattered Clouds
9:56 PM 53.1 °F - 30.0 °F 41% 29.86 in 10.0 mi South 10.4 mph - N/A   Mostly Cloudy
10:56 PM 55.0 °F - 35.1 °F 47% 29.83 in 10.0 mi South 9.2 mph - N/A   Mostly Cloudy
11:56 PM 57.0 °F - 39.0 °F 51% 29.81 in 10.0 mi South 16.1 mph 24.2 mph N/A   Mostly Cloudy